Regional Weather Roundup
Issued by NWS Sterling, VA

Home | Current Version | Previous Version | Graphics & Text | Print | Product List | Glossary On
Versions: 1 2 3 4 5 6 7 8 9 10 11 12 13 14 15 16 17 18 19 20 21 22 23 24 25 26 27 28 29 30 31 32 33 34 35 36
000
ASUS41 KLWX 230210
RWRLWX

REGIONAL WEATHER ROUNDUP
NATIONAL WEATHER SERVICE BALTIMORE MD/WASHINGTON DC
1000 PM EDT WED OCT 22 2014

Note: "FAIR" indicates few or no clouds below 12,000 feet
with no significant weather and/or obstructions to visibility.
 TC=TEMPERATURE CELSIUS

 * =Non NWS site. Station does not report precipitation (e.g. rain,
    snow, etc.), thunder, or fog.

DCZ001-MDZ009-015-VAZ040>042-051-053>054-230300-
WASHINGTON METRO

CITY           SKY/WX    TMP DP  RH WIND       PRES   REMARKS
WASHINGTON NAT CLOUDY    57  44  62 NW15G22   29.96R
DULLES         CLOUDY    52  43  71 NW14G22   29.98R
ANDREWS AFB    CLOUDY    54  46  73 NW18G24   29.92F
FT BELVOIR     CLOUDY    55  44  64 NW17G24   29.96R
QUANTICO       CLOUDY    55  43  63 N18G32    29.98R
COLLEGE PARK*  CLOUDY    55  45  67 NW8G18    29.94F
LEESBURG*      CLOUDY    52  46  82 NW14G22   29.99F
GAITHERSBURG*  CLOUDY    52  43  71 NW7       29.99F

$$

MDZ006>007-011-014-230300-
BALTIMORE METRO

CITY           SKY/WX    TMP DP  RH WIND       PRES   REMARKS
BWI AIRPORT    MOCLDY    54  44  69 NW13G25   29.92F
MD SCIENCE CTR   N/A     55  44  66 MISG      29.92F
MARTIN STATE   MOCLDY    55  48  76 NW14G20   29.92S
ANNAPOLIS      LGT RAIN  56  47  71 NW17G23   29.90F
FORT MEADE*    CLOUDY    54  45  71 NW12G20   29.95F

$$

MDZ012-015-019>023-230300-
MARYLAND EASTERN SHORE

CITY           SKY/WX    TMP DP  RH WIND       PRES   REMARKS
OCEAN CITY     CLOUDY    53  50  89 NW12G25   29.79S
SALISBURY      CLOUDY    56  49  77 NW17G29   29.83S
BAY BRIDGE AP* LGT RAIN  54  46  76 NW21G32   29.89F
CAMBRIDGE*     CLOUDY    55  46  71 NW17G24   29.86F VSB<1/4

$$

MDZ017>025-230300-
SOUTHERN MARYLAND

CITY           SKY/WX    TMP DP  RH WIND       PRES   REMARKS
PATUXENT RIVER CLOUDY    54  48  80 NW22G31   29.89S
ST INIGOES     CLOUDY    54  47  77 NW8       29.89S
LEONARDTOWN*   CLOUDY    52  46  82 NW6       29.92F

$$

MDZ003>005-230300-
NORTH CENTRAL MARYLAND

CITY           SKY/WX    TMP DP  RH WIND       PRES   REMARKS
FREDERICK*     MOCLDY    55  43  62 NW9       30.00F
HAGERSTOWN APT PTCLDY    50  41  71 NW13      30.01F
WESTMINSTER*   CLOUDY    52  46  82 NW10G17   29.95F

$$

MDZ501>502-230300-
WESTERN MARYLAND

CITY           SKY/WX    TMP DP  RH WIND       PRES   REMARKS
OAKLAND*       CLOUDY    37 N/A N/A NW12G18   30.11S FOG
CUMBERLAND*    CLOUDY    52  41  66 N7        30.12S

$$

VAZ025>031-230300-
SHENANDOAH VALLEY

CITY           SKY/WX    TMP DP  RH WIND       PRES   REMARKS
WINCHESTER*    CLOUDY    52  37  58 NW12G22   30.04R
FRONT ROYAL*   CLOUDY    52  41  66 N6        30.04S
LURAY*         CLOUDY    54  43  66 N9G20     30.05S
NEW MARKET*    CLOUDY    51  41  70 CALM      30.07R
STAUNTON*      CLOUDY    47  40  77 CALM      30.08S
WAYNESBORO*    FAIR      47  40  75 NW6       30.06R

$$

WVZ021-048>050-054>055-230300-
EASTERN WEST VIRGINIA PANHANDLE

CITY           SKY/WX    TMP DP  RH WIND       PRES   REMARKS
MARTINSBURG    MOCLDY    52  40  63 NW16G24   30.03S
PETERSBURG*    CLOUDY    51  41  66 NW12G17   30.12S

$$

VAZ036>039-050-230300-
CENTRAL FOOTHILLS

CITY           SKY/WX    TMP DP  RH WIND       PRES   REMARKS
CHARLOTTESVILL CLEAR     53  40  61 N9G18     30.00R
CULPEPER*      CLEAR     54  43  66 NW13G20   30.01R
ORANGE*        CLEAR     52  43  71 NW6       30.01S
GORDONSVILLE*  FAIR      50  43  76 NW5       30.00R
WARRENTON*     FAIR      53  47  82 NW10G21   29.99R

$$

VAZ055>057-230300-
NORTH AND CENTRAL PIEDMONT

CITY           SKY/WX    TMP DP  RH WIND       PRES   REMARKS
FREDERICKSBRG* MOCLDY    54  45  71 NW10      29.97R
STAFFORD*      PTCLDY    51  43  72 NW13G18   30.01R

$$

NCZ024-NYZ072-PAZ021-071-VAZ022-071-230300-
OTHER REGIONAL OBSERVATIONS

CITY           SKY/WX    TMP DP  RH WIND       PRES   REMARKS
NEW YORK CITY  CLOUDY    51  48  89 N8        29.77F
PHILADELPHIA   LGT RAIN  53  49  86 NW16G31   29.83F
PITTSBURGH     CLOUDY    47  41  80 N10       30.18F
ROANOKE        PTCLDY    52  38  58 NW13      30.11R
RICHMOND       CLOUDY    55  44  66 NW18G26   29.96R
RALEIGH        PTCLDY    55  41  59 VRB3      30.03R

$$

ANZ530>537-230300-
MARINE OBSERVATIONS

STATION/POSITION TIME  TEMP    WIND        PRES
                       AIR SEA DIR/SP/G
                 (UTC) (F)     (DEG/KT/KT) (MB)
THOMAS PT LIGHT  0200   55 63  330/ 18/ 21 1013.2R
BALT KEY BRIDGE  0200   56     320/ 20/ 25 1012.3F
COVE POINT       0200   55     350/ 27/ 31 1011.8F
LEWISETTA        0200   56 61  340/ 14/ 21 1012.2F
SOLOMONS ISLAND  0200      64                N/A
PINEY POINT      0200          340/ 22/ 24   N/A

$$




USA.gov is the U.S. government's official web portal to all federal, state and local government web resources and services.